Location: Ferchesar
(52.6477°N, 12.4298°E)
Time: 11:47:35
(UTC+01:00)

Transit 4A - Pass Details

Date: 10 December 2021
Orbit: 864 x 981 km, 66.8° (Epoch: 20 January)

Event Time Altitude Azimuth Distance (km) Brightness Sun altitude
Rises 20:18:09 0° 256° (WSW) 3,497 11.7 -38.3°
Reaches altitude 10° 20:20:52 10° 266° (W) 2,576 10.9 -38.7°
Enters shadow 20:24:42 30° 301° (WNW) 1,589 9.5 -39.3°
